Regional Weather Roundup
Issued by NWS

Home | Current Version | Previous Version | Graphics & Text | Print | Product List | Glossary On
Versions: 1 2 3 4 5 6 7 8 9 10 11 12 13 14 15 16 17 18 19 20 21 22 23 24 25 26 27 28 29 30 31 32 33 34 35 36 37 38 39 40 41 42 43 44 45 46 47 48 49 50
831
ASUS45 KBOU 292307
RWRCO

WEATHER ROUNDUP FOR COLORADO
NATIONAL WEATHER SERVICE DENVER/BOULDER CO
500 PM MDT WED MAR 29 2017

NOTE: "FAIR" INDICATES FEW OR NO CLOUDS BELOW 12000 FEET WITH NO
SIGNIFICANT WEATHER AND/OR OBSTRUCTIONS TO VISIBILITY.

COZ001>005-013-030-031-300000-
...NORTHWEST COLORADO...

CITY           SKY/WX    TMP DP  RH WIND       PRES   REMARKS
CRAIG          FAIR      52  26  36 SW10G17   30.08F
HAYDEN         FAIR      50  25  37 W13G18    30.08F
MEEKER         FAIR      51  27  39 VRB3      30.08F
MOUNT WERNER   NOT AVBL
STEAMBOAT SPGS FAIR      48  28  45 W14       30.07S
WALDEN         NOT AVBL
$$

COZ006>008-011-300000-
...WEST CENTRAL VALLEYS...

CITY           SKY/WX    TMP DP  RH WIND       PRES   REMARKS
GRAND JUNCTION FAIR      62  23  22 W10G17    30.02F
MONTROSE       FAIR      57  25  29 VRB7      30.06F
EAGLE          MOSUNNY   55  23  28 SW8       30.05F
RIFLE          FAIR      58  23  26 W6        30.04F
DELTA          FAIR      64  24  21 CALM      30.01S
NUCLA          FAIR      61  21  21 NW15G22   30.07S
$$

COZ017>023-064>068-300000-
...SOUTHWEST COLORADO...

CITY           SKY/WX    TMP DP  RH WIND       PRES   REMARKS
DURANGO        FAIR      62   6  11 N16G28    29.95S
CORTEZ         FAIR      62  23  22 N14G22    30.00F
PAGOSA SPRINGS FAIR      56   7  14 E8        30.00S
TELLURIDE      FAIR      43  18  36 NW7       30.14S
WOLF CREEK PAS FAIR      30  10  43 NW10      30.19S WCI  21
$$

COZ009-010-012-014-032>034-037-058>063-300000-
...CENTRAL COLORADO...

CITY           SKY/WX    TMP DP  RH WIND       PRES   REMARKS
ASPEN          PTSUNNY   51  23  33 NW10G18   30.06R
BUENA VISTA    FAIR      53  11  18 NW20G25   30.01R
COPPER MTN     FAIR      34  21  60 NW23      30.15S WCI  22
BERTHOUD PASS  PTSUNNY   21  10  63 NW28G35   30.12R HAZE    WCI   3
COTTONWOOD PAS FAIR      45   9  23 CALM      30.08R
GUNNISON       FAIR      50  20  30 NW15      30.05R
KREMMLING      FAIR      54  21  28 NW12G20   30.07F
LEADVILLE      FAIR      38  11  32 NW16G24   30.08S
MONARCH PASS   FAIR      32  10  40 NE6       30.25R WCI  26
SALIDA         FAIR      57   6  12 N14G28    30.06S
SUNLIGHT       FAIR      32  21  64 CALM      30.21S
WILKERSON PASS FAIR      32  23  69 E6        30.13S WCI  26
$$

COZ069>075-300000-
...SAN LUIS VALLEY/SANGRE DE CRISTO MOUNTAINS...

CITY           SKY/WX    TMP DP  RH WIND       PRES   REMARKS
ALAMOSA        PTSUNNY   53  19  26 NW18G29   29.97S
LA VETA PASS   NOT AVBL
SAGUACHE       FAIR      54  14  20 NW20G25   30.00S
$$

COZ035-036-038>040-300000-
...NORTHERN COLORADO FRONT RANGE...

CITY           SKY/WX    TMP DP  RH WIND       PRES   REMARKS
DENVER INTL AP FAIR      56  28  34 N18G29    29.96F
DMNS CITY PARK   N/A     56  24  29 N7G20     29.97F
AURORA         MOSUNNY   56  29  35 N17G25    29.98S
FRONT RANGE AP PTSUNNY   57  32  38 N23G29    29.97
ERIE MUNI ARPT FAIR      60  24  25 N9G18       N/A
BOULDER MUN AP FAIR      57  28  33 NW5       29.96F
CENTENNIAL     FAIR      54  29  38 N13       29.98F
BROOMFIELD     MOSUNNY   57  27  30 N12G17    29.99S
FORT COLLINS   FAIR      61  26  26 N18       29.95F
LONGMONT       FAIR      64  27  24 NE8       29.97F
$$

COZ041-046-047-076>085-087-088-300000-
...PIKES PEAK/PALMER DIVIDE AND SOUTHERN FOOTHILLS...

CITY           SKY/WX    TMP DP  RH WIND       PRES   REMARKS
COLO. SPRINGS  FAIR      53  28  38 NW25G32   29.98S
A. F. ACADEMY  SUNNY     50  30  46 N20G28    29.98S
SCHRIEVER AFB  FAIR      50  29  44 N20G30    29.99S
ELLICOTT       FAIR     N/A N/A N/A NE22G30   29.97S
FALCON         FAIR      49  29  45 N17G25    30.00S
FORT CARSON    NOT AVBL
LIMON          PTSUNNY   49  36  61 N22G28    29.97S
MONUMENT HILL  FAIR      45  28  53 N20G26    30.01S
TRINIDAD       PTSUNNY   47  34  60 NE18G24   30.01R
$$

COZ042>045-048>051-090-091-300000-
...NORTHEAST COLORADO...

CITY           SKY/WX    TMP DP  RH WIND       PRES   REMARKS
GREELEY ARPT   NOT AVBL
AKRON          CLOUDY    50  34  54 N18G29    29.96S
BURLINGTON     CLOUDY    43  39  86 N16       29.94S
WRAY           CLOUDY    46  37  71 N16G22    29.96R
STERLING       PTSUNNY   52  37  58 NE13      29.95S
HOLYOKE        PTSUNNY   48  39  71 N9        29.96S
FORT MORGAN    FAIR      57  31  36 N16G23    29.97R
$$

COZ086-089-092>099-300000-
...SOUTHEAST COLORADO...

CITY           SKY/WX    TMP DP  RH WIND       PRES   REMARKS
PUEBLO         FAIR      59  33  37 NE21      29.94F
LA JUNTA       CLOUDY    52  35  52 N14       29.97S
LAMAR          CLOUDY    49  37  63 N16       29.95S
SPRINGFIELD      N/A     43  38  82 N25       29.94S
$$




USA.gov is the U.S. government's official web portal to all federal, state and local government web resources and services.